Погода в Тырышкине

Россия / Кировская область     57°26′11″N   46°57′24″E
темп.,
°C
ветер,
м/с
пор.,
м/с
влажн.,
%
обл.,
%
осадки,
мм/ч
давл.,
гПа
погр.,
м
15 апреля, чт
чт1500:00+8ю27925 0.0 1021107
03:00+7ююз22951 0.0 102042
06:00+6ююз2398100 0.0 102082
09:00+11ююз238922 0.0 1019161
12:00+17зюз236374 0.0 1019611
15:00+12ссв478999 0.1 1020275
18:00+8ссв51292100 0.0 1022499
21:00+6св51388100 0.0 1024520
16 апреля, пт
пт1600:00+5св5138293 0.0 1025515
03:00+3св5128551 0.0 1027484
06:00+2св5127944 0.0 1028491
09:00+6всв695842 0.0 1028667
12:00+9всв57455 0.0 10291003
15:00+10всв56435 0.0 10281129
18:00+8св37595 0.0 1029292
21:00+3св39773 0.0 1030193
17 апреля, сб
сб1700:00+2св39790 0.0 1030173
03:000св27820 0.0 1031115
06:00+1св38770 0.0 1031207
09:00+7всв36530 0.0 1031643
12:00+10св34432 0.0 10301262
15:00+11св34425 0.0 10291417
18:00+8ссв24575 0.0 1028112
21:00+5ссв22720 0.0 102818
18 апреля, вс
вс1800:00+3ссв25804 0.0 102881
03:00+2ссв2782100 0.0 1028125
06:00+2ссв267946 0.0 1028161
09:00+8ссв355755 0.0 1027687
12:00+10св565169 0.0 10271544
15:00+6св5867100 0.0 1029868
18:00+6св4849100 0.0 1029938
21:00+3св4125644 0.0 1031524
19 апреля, пн
пн1900:00+1всв411600 0.0 1032418
03:00−1всв411650 0.0 1034428
06:000всв411620 0.0 1035511
09:00+3в57465 0.0 10351341
12:00+6в57365 0.0 10351736
15:00+7в46325 0.0 10341756
18:00+5в37400 0.0 1035502
21:00+1всв27590 0.0 1036134